Location: Browne Barr
(41.2080°N, 111.9480°W)
Time: 08:12:53
(UTC+00:00)

X-37B - Pass Details

Date: 06 August 2021
Orbit: 381 x 393 km, 45.0° (Epoch: 29 August)

Event Time Altitude Azimuth Distance (km) Brightness Sun altitude
Exits shadow 11:10:31 14° 288° (WNW) 1,199 2.7 -13.5°
Maximum altitude 11:12:58 39° 356° (N) 585 1.7 -13.2°
Drops below altitude 10° 11:15:57 10° 68° (ENE) 1,398 4.8 -12.7°
Sets 11:18:06 0° 76° (ENE) 2,252 5.9 -12.4°
